DECAYED

OBJECT BR, 56989 (Decayed)

Orbit data source: Space-Track

You're viewing an Uncataloged Satellite

Recently launched and/or uncataloged satellites may have evolving metadata. Metadata may include but not limited to: Owner, Maufacturer, Bus, Motor, and Mission.

OBJECT BR, 56989 was a satellite in SSO that was launched on Mon, 12 Jun 2023 UTC via an FALCON 9 launch vehicle from the Air Force Western Test Range (AFWTR). Unknown objects in Earth's orbit typically refer to objects detected orbiting the Earth but have not yet been identified or cataloged. These objects could be anything from previously untracked satellites, spent rocket stages, debris from satellite collisions, or even natural meteoroids temporarily captured by Earth's gravity. This object's orbit decayed before it could be identified.

Not visible in the next 10 days
Identifier
56989, 2023-084BR
Orbit
Decayed
Last TLE update
8 months ago
Origin
Flag of TBDBRONC (TBD)
Manufacturer
BRONC/STANSI
Mission
Decayed Amateur Technology
Bus & Motor
CUBESAT 1U, Unknown motor
Mass
1 kg wet, 1 kg dry
Launch date (UTC)
2023-06-12 (2 years ago)
Launch vehicle
FALCON 9
Launch site
Air Force Western Test Range (AFWTR)
Object type
Unknown
Shape & HBR
Box, 0.1 m
Radar Cross Section
0.015 m², Small (<0.1 m²)

Expand to show TLE details & history

TLE from 8 months ago
0 OBJECT BR
1 56989U 23084BR  24242.31976040  .03115048  24175-1  32203-2 0  9992
2 56989  97.5000   9.7751 0014049 288.1312  71.8443 16.14955306 67855
Epoch: 2024-08-29T07:40Z
Definitive object data (Epoch: 2024-08-29T07:40:27.298Z)
Latitude
-0.00009°
Longitude
-83.34745°
Altitude
233.616 km
Speed
7.768 km/s
True Right ascension
00h 39m 06s
True Declination
0° 00' 00"
Sunlit
Object was in full shadow at TLE epoch
Visualization observer readout
Visualization observer readout
Orbital elements
Apogee altitude
239.413 km
Perigee altitude
220.845 km
Semi-major axis
6,608.266 km
Eccentricity
0.0014049
Inclination
97.5°
RAAN
9.7751°
Arg. of periapsis
288.1312°
True anomaly
71.99736°
Mean anomaly
71.8443°
Eccentric anomaly
71.92082°
Mean motion
4.04028 °/min
BSTAR
0.0032203
Orbital period
89.1 mins
Loading maneuver chart data...
Loading SW <> Apogee altitude chart data...
Loading historical data...
Loading historical data...
Loading historical data...
Loading historical data...
Loading historical data...
Loading historical data...
Loading historical data...

OBJECT BR Visibility forecast

Observer location: undefined°, undefined°

This satellite is decayed
Span
Click to sort rows by Start time (UTC) header in descending order
Start Az.
Max El. time (UTC)
Max El. Az.
Max El.
End time (UTC)
End Az.
|